Regional Weather Roundup
Issued by NWS

Home | Current Version | Previous Version | Text Only | Print | Product List | Glossary Off
Versions: 1 2 3 4 5 6 7 8 9 10 11 12 13 14 15 16 17 18 19 20 21 22 23 24 25 26 27 28 29 30 31 32 33 34 35 36 37 38 39 40 41 42 43 44 45 46 47 48 49 50

000
ASUS43 KOAX 271102
RWRNE

WEATHER ROUNDUP FOR NEBRASKA
NATIONAL WEATHER SERVICE OMAHA NE
600 AM CDT TUE SEP 27 2016

NOTES: SATELLITE DATA IS BEING USED TO AUGMENT CLOUD COVER ABOVE
       12000 FEET.
       "FAIR" INDICATES FEW OR NO CLOUDS BELOW 12,000 FEET WITH NO
       SIGNIFICANT WEATHER AND/OR OBSTRUCTIONS TO VISIBILITY.

  * THESE STATIONS DO NOT REPORT WEATHER SUCH AS RAIN...SNOW OR FOG.

NEZ001>004-019>022-054>056-271200-
NEBRASKA PANHANDLE

CITY           SKY/WX    TMP DP  RH WIND       PRES   REMARKS
SCOTTSBLUFF    CLEAR     43  39  86 CALM      30.18F
ALLIANCE       CLOUDY    34  33  96 W8        30.17S WCI  27
CHADRON        CLEAR     42  38  85 SW3       30.14F
SIDNEY         CLEAR     41  38  89 NW9       30.20F
$$

NEZ057>060-069>072-079>082-271200-
SOUTHWEST NEBRASKA

CITY           SKY/WX    TMP DP  RH WIND       PRES   REMARKS
NORTH PLATTE   CLEAR     39  37  92 NW5       30.15S
IMPERIAL       CLEAR     47  40  76 NW7       30.17S
LEXINGTON      CLEAR     43  40  88 W6        30.12S
MCCOOK         CLEAR     44  41  89 W5        30.13S
OGALLALA       CLEAR     40  38  93 W7        30.18R
$$

NEZ005>010-023>029-035>040-094-271200-
NORTH CENTRAL NEBRASKA

CITY           SKY/WX    TMP DP  RH WIND       PRES   REMARKS
VALENTINE      CLEAR     39  35  86 W7        30.12S WCI  34
AINSWORTH      CLEAR     44  40  87 W7        30.11S
BROKEN BOW     CLEAR     40  38  93 CALM      30.11S
O`NEILL        CLEAR     43  39  88 W5        30.08S
ORD            CLEAR     42  38  85 CALM      30.08S
THEDFORD       CLEAR     43  40  90 W6        30.14S
$$

NEZ041-046>049-061>064-073>077-083>087-271200-
SOUTH CENTRAL NEBRASKA

CITY           SKY/WX    TMP DP  RH WIND       PRES   REMARKS
GRAND ISLAND   CLEAR     47  42  83 W9        30.08S
AURORA         CLEAR     46  44  94 NW6       30.07S
HASTINGS       CLOUDY    49  42  77 NW6       30.09F
HEBRON         CLEAR     46  44  92 CALM      30.06S
HOLDREGE       CLEAR     46  41  84 NW5       30.10S
KEARNEY *      CLEAR     46  39  76 NW7       30.09S
YORK           CLEAR     48  45  87 CALM      30.06F
$$

NEZ011>018-030>034-042>045-271200-
NORTHEAST NEBRASKA

CITY           SKY/WX    TMP DP  RH WIND       PRES   REMARKS
NORFOLK        CLEAR     46  41  82 W3        30.06R
ALBION         CLEAR     41  39  93 NW3       30.07S
BLAIR          PTCLDY    51  45  79 NW3       30.03S
FREMONT        CLEAR     46  45  95 CALM      30.04F
TEKAMAH        PTCLDY    47  42  83 W6        30.03S
WAYNE          CLEAR     42  40  93 S3        30.05S
$$

NEZ050>053-065>068-078-088>093-271200-
SOUTHEAST NEBRASKA

CITY           SKY/WX    TMP DP  RH WIND       PRES   REMARKS
LINCOLN        CLEAR     47  44  90 CALM      30.06F
OMAHA EPPLEY   PTCLDY    50  44  80 NW5       30.03F
BEATRICE       CLEAR     47  45  95 CALM      30.05S
FALLS CITY     CLEAR     51  46  83 CALM      30.03S
NEBRASKA CITY  CLEAR     51  40  65 W6        30.03S
PLATTSMOUTH    CLEAR     50  42  74 NW6       30.04S
$$

NEZ044-045-051>053-067-271200-
OMAHA AREA

CITY           SKY/WX    TMP DP  RH WIND       PRES   REMARKS
OMAHA EPPLEY   PTCLDY    50  44  80 NW5       30.03F
BLAIR          PTCLDY    51  45  79 NW3       30.03S
FREMONT        CLEAR     46  45  95 CALM      30.04F
MILLARD        PTCLDY    49  47  93 CALM      30.03F
OFFUTT AFB     CLEAR     49  47  95 NW1       30.03S
PLATTSMOUTH    CLEAR     50  42  74 NW6       30.04S
WAHOO          FAIR      47  45  91 CALM      30.04F
$$




USA.gov is the U.S. government's official web portal to all federal, state and local government web resources and services.